カタログに戻る

STARLINK-4168

運用中通信VLEO
NORAD 52845·PAYLOAD·🇺🇸 United States

打ち上げ Jun 17, 2022 から Cape Canaveral Space Force Station

Loading…

次のパス (今後24時間)

TLE

最新Source: CelesTrak SupGP

元期: Sep 15, 2026, 02:45 UTC

1 52845C 22062R   26258.11506944 -.00025087  00000+0 -80667-3 0  2580
2 52845  53.1568 253.8994 0001304  90.6647  61.7807 15.31716461    19

AllMySatでSTARLINK-4168をリアルタイム追跡

Download on the App Store